Weather History for San Carlos, CA

Change the Weather History Date:

Thursday, May 16, 2013

  Actual Average Record
Temperature  
Mean Temperature 60 °F -  
Max Temperature 66 °F 77 °F 96 °F (1970)
Min Temperature 55 °F 48 °F 40 °F (1955)
Degree Days  
Heating Degree Days 4    
Growing Degree Days 10 (Base 50)    
Moisture  
Dew Point 50 °F    
Average Humidity 76    
Maximum Humidity 88    
Minimum Humidity 55    
Precipitation  
Precipitation 0.00 in - - ()
Sea Level Pressure  
Sea Level Pressure 30.04 in    
Wind  
Wind Speed 7 mph (West)    
Max Wind Speed 16 mph    
Max Gust Speed 20 mph    
Visibility 10 miles    
Events Rain    
Averages and records for this station are not official NWS values.
T = Trace of Precipitation, MM = Missing Value Source: NWS Daily Summary

Daily Weather History Graph

Daily Weather History Graph

Search for Another Location

Airport:

Trip Planner

Search our weather history database for the weather conditions in past years. The results will help you decide how hot, cold, wet, or windy it might be!

Date:

Astronomy

May. 16, 2013 Rise Set
Actual Time 5:58 AM PDT 8:12 PM PDT
Civil Twilight 5:29 AM PDT 8:42 PM PDT
Nautical Twilight 4:53 AM PDT 9:18 PM PDT
Astronomical Twilight 4:14 AM PDT 9:57 PM PDT
Moon 11:34 AM PDT (5/16) 12:38 AM PDT (5/16)
Length of Visible Light 15h 12m
Length of Day
14h 13m
Waxing Crescent, 36% of the Moon is Illuminated
May 16
Waxing Crescent
May 17
First Quarter
May 24
Full
May 31
Last Quarter
Jun 8
New

Hourly Weather History & Observations

Time (PDT) Temp. Dew Point Humidity Pressure Visibility Wind Dir Wind Speed Gust Speed Precip Events Conditions
12:15 AM 55.4 °F 50.0 °F 82% 30.06 in 10.0 mi WSW 3.5 mph - N/A   Partly Cloudy
12:35 AM 55.4 °F 50.0 °F 82% 30.06 in 10.0 mi West 8.1 mph - N/A   Partly Cloudy
12:55 AM 55.4 °F 50.0 °F 82% 30.06 in 10.0 mi West 6.9 mph - N/A   Scattered Clouds
1:15 AM 57.2 °F 50.0 °F 77% 30.06 in 10.0 mi West 6.9 mph - N/A   Scattered Clouds
1:35 AM 57.2 °F 50.0 °F 77% 30.05 in 10.0 mi West 11.5 mph - N/A   Partly Cloudy
1:55 AM 57.2 °F 50.0 °F 77% 30.05 in 10.0 mi WNW 8.1 mph - N/A   Partly Cloudy
2:15 AM 57.2 °F 50.0 °F 77% 30.04 in 10.0 mi NW 8.1 mph - N/A   Scattered Clouds
2:35 AM 57.2 °F 50.0 °F 77% 30.04 in 10.0 mi NW 5.8 mph - N/A   Partly Cloudy
2:55 AM 57.2 °F 50.0 °F 77% 30.04 in 10.0 mi NW 10.4 mph - N/A   Partly Cloudy
3:15 AM 57.2 °F 50.0 °F 77% 30.04 in 10.0 mi NW 4.6 mph - N/A   Scattered Clouds
3:35 AM 57.2 °F 50.0 °F 77% 30.03 in 10.0 mi NNW 3.5 mph - N/A   Scattered Clouds
3:55 AM 57.2 °F 50.0 °F 77% 30.04 in 10.0 mi WNW 5.8 mph - N/A   Mostly Cloudy
4:15 AM 57.2 °F 50.0 °F 77% 30.03 in 10.0 mi WNW 5.8 mph - N/A   Mostly Cloudy
4:35 AM 57.2 °F 50.0 °F 77% 30.03 in 10.0 mi WSW 5.8 mph - N/A   Mostly Cloudy
4:55 AM 57.2 °F 50.0 °F 77% 30.03 in 10.0 mi West 3.5 mph - N/A   Mostly Cloudy
5:15 AM 57.2 °F 50.0 °F 77% 30.03 in 10.0 mi NW 5.8 mph - N/A   Overcast
5:35 AM 57.2 °F 50.0 °F 77% 30.03 in 10.0 mi WNW 5.8 mph - N/A   Mostly Cloudy
5:55 AM 57.2 °F 50.0 °F 77% 30.03 in 10.0 mi West 9.2 mph - N/A   Mostly Cloudy
6:15 AM 57.2 °F 50.0 °F 77% 30.03 in 10.0 mi West 4.6 mph - N/A   Overcast
6:35 AM 57.2 °F 51.8 °F 82% 30.04 in 10.0 mi WNW 5.8 mph - N/A   Overcast
6:55 AM 57.2 °F 51.8 °F 82% 30.05 in 10.0 mi West 6.9 mph - N/A   Mostly Cloudy
6:56 AM 57.2 °F 51.8 °F 82% 30.05 in 10.0 mi West 9.2 mph - N/A   Mostly Cloudy
7:53 AM 57.2 °F 53.6 °F 88% 30.06 in 8.0 mi WSW 8.1 mph - N/A Rain Light Rain
8:48 AM 57.2 °F 53.6 °F 88% 30.06 in 10.0 mi WSW 5.8 mph - N/A   Mostly Cloudy
9:54 AM 59.0 °F 53.6 °F 82% 30.06 in 10.0 mi NW 9.2 mph 16.1 mph N/A   Mostly Cloudy
10:49 AM 60.8 °F 53.6 °F 77% 30.06 in 10.0 mi NNE 3.5 mph - N/A   Mostly Cloudy
1:51 PM 66.2 °F 50.0 °F 56% 30.03 in 10.0 mi West 13.8 mph - N/A   Mostly Cloudy
4:47 PM 64.4 °F 48.2 °F 56% 30.02 in 10.0 mi WSW 16.1 mph 19.6 mph N/A   Scattered Clouds
5:53 PM 60.8 °F 48.2 °F 63% 30.02 in 10.0 mi WSW 12.7 mph 17.3 mph N/A   Scattered Clouds
6:53 PM 59.0 °F 50.0 °F 72% 30.02 in 10.0 mi WSW 13.8 mph 19.6 mph N/A   Mostly Cloudy
7:55 PM 57.2 °F 50.0 °F 77% 30.02 in 10.0 mi WSW 8.1 mph - N/A   Mostly Cloudy
8:55 PM 57.2 °F 41.0 °F 55% 30.03 in 10.0 mi WSW 6.9 mph - N/A   Scattered Clouds
9:15 PM 57.2 °F 48.2 °F 72% 30.03 in 10.0 mi West 8.1 mph - N/A   Clear
9:35 PM 55.4 °F 48.2 °F 77% 30.04 in 10.0 mi West 6.9 mph - N/A   Clear
9:55 PM 55.4 °F 48.2 °F 77% 30.04 in 10.0 mi West 8.1 mph - N/A   Clear
10:15 PM 55.4 °F 48.2 °F 77% 30.05 in 10.0 mi West 5.8 mph - N/A   Mostly Cloudy
10:35 PM 55.4 °F 48.2 °F 77% 30.05 in 10.0 mi West 3.5 mph - N/A   Overcast
10:55 PM 55.4 °F 48.2 °F 77% 30.04 in 10.0 mi West 3.5 mph - N/A   Mostly Cloudy
11:15 PM 55.4 °F 48.2 °F 77% 30.04 in 10.0 mi West 3.5 mph - N/A   Scattered Clouds
11:35 PM 55.4 °F 48.2 °F 77% 30.04 in 10.0 mi WNW 4.6 mph - N/A   Scattered Clouds
11:55 PM 55.4 °F 48.2 °F 77% 30.03 in 10.0 mi WNW 9.2 mph - N/A   Scattered Clouds